H1 CPF 1 NER 2022 1 27 9 5271 glonass106 H2 0705201 9106 32275 2022 1 27 0 0 0 2022 1 30 23 45 0 900 1 1 0 0 0 H9 10 0 59606 0.00000 0 11488926.459 303342.970 22777699.103 10 0 59606 900.00000 0 12873502.805 2689561.863 21861868.308 10 0 59606 1800.00000 0 14361845.718 4846259.799 20521705.740 10 0 59606 2700.00000 0 15898439.733 6730802.167 18783194.328 10 0 59606 3600.00000 0 17422199.016 8312328.661 16680047.262 10 0 59606 4500.00000 0 18869007.193 9572785.855 14253058.712 10 0 59606 5400.00000 0 20174404.721 10507423.714 11549316.914 10 0 59606 6300.00000 0 21276311.438 11124736.145 8621294.247 10 0 59606 7200.00000 0 22117670.037 11445848.889 5525831.492 10 0 59606 8100.00000 0 22648899.264 11503381.211 2323035.700 10 0 59606 9000.00000 0 22830053.257 11339830.004 -924887.123 10 0 59606 9900.00000 0 22632595.543 11005545.042 -4154841.559 10 0 59606 10800.00000 0 22040712.285 10556381.514 -7304070.832 10 0 59606 11700.00000 0 21052108.639 10051129.632 -10311379.066 10 0 59606 12600.00000 0 19678253.855 9548830.575 -13118323.429 10 0 59606 13500.00000 0 17944063.970 9106092.864 -15670352.589 10 0 59606 14400.00000 0 15887034.589 8774523.180 -17917869.000 10 0 59606 15300.00000 0 13555859.467 8598380.706 -19817194.111 10 0 59606 16200.00000 0 11008592.084 8612554.528 -21331417.739 10 0 59606 17100.00000 0 8310426.472 8840949.898 -22431115.218 10 0 59606 18000.00000 0 5531189.491 9295351.778 -23094918.577 10 0 59606 18900.00000 0 2742648.543 9974813.985 -23309930.979 10 0 59606 19800.00000 0 15746.265 10865600.069 -23071976.627 10 0 59606 20700.00000 0 -2582123.221 11941678.870 -22385681.497 10 0 59606 21600.00000 0 -4989683.927 13165754.417 -21264383.409 10 0 59606 22500.00000 0 -7154087.331 14490787.403 -19729873.168 10 0 59606 23400.00000 0 -9032866.073 15861944.734 -17811971.619 10 0 59606 24300.00000 0 -10595451.595 17218895.667 -15547950.608 10 0 59606 25200.00000 0 -11824193.430 18498358.293 -12981808.791 10 0 59606 26100.00000 0 -12714838.618 19636789.419 -10163416.158 10 0 59606 27000.00000 0 -13276452.390 20573104.677 -7147543.768 10 0 59606 27900.00000 0 -13530784.680 21251314.233 -3992797.479 10 0 59606 28800.00000 0 -13511110.299 21622962.767 -760476.685 10 0 59606 29700.00000 0 -13260592.840 21649270.608 2486619.518 10 0 59606 30600.00000 0 -12830242.435 21302885.390 5685415.114 10 0 59606 31500.00000 0 -12276554.574 20569170.030 8773784.579 10 0 59606 32400.00000 0 -11658930.575 19446972.384 11691760.718 10 0 59606 33300.00000 0 -11036989.354 17948843.811 14382699.133 10 0 59606 34200.00000 0 -10467884.519 16100697.082 16794376.534 10 0 59606 35100.00000 0 -10003740.323 13940917.612 18880001.668 10 0 59606 36000.00000 0 -9689314.717 11518964.718 20599119.568 10 0 59606 36900.00000 0 -9559987.991 8893520.959 21918392.004 10 0 59606 37800.00000 0 -9640161.552 6130266.116 22812239.647 10 0 59606 38700.00000 0 -9942134.108 3299367.806 23263334.115 10 0 59606 39600.00000 0 -10465502.412 472792.360 23262930.961 10 0 59606 40500.00000 0 -11197111.851 -2278453.249 22811037.585 10 0 59606 41400.00000 0 -12111559.179 -4887034.953 21916413.087 10 0 59606 42300.00000 0 -13172226.711 -7291848.854 20596400.046 10 0 59606 43200.00000 0 -14332805.150 -9440317.164 18876591.282 10 0 59606 44100.00000 0 -15539241.763 -11290328.372 16790337.578 10 0 59606 45000.00000 0 -16732032.781 -12811741.848 14378105.353 10 0 59606 45900.00000 0 -17848764.243 -13987395.102 11686696.095 10 0 59606 46800.00000 0 -18826794.965 -14813572.476 8768342.018 10 0 59606 47700.00000 0 -19605968.878 -15299916.397 5679695.076 10 0 59606 48600.00000 0 -20131242.541 -15468785.637 2480728.590 10 0 59606 49500.00000 0 -20355116.810 -15354088.231 -766427.324 10 0 59606 50400.00000 0 -20239769.601 -14999638.770 -3998693.699 10 0 59606 51300.00000 0 -19758799.118 -14457109.961 -7153270.318 10 0 59606 52200.00000 0 -18898503.137 -13783665.474 -10168858.712 10 0 59606 53100.00000 0 -17658639.474 -13039374.610 -12986856.209 10 0 59606 54000.00000 0 -16052634.613 -12284518.541 -15552497.444 10 0 59606 54900.00000 0 -14107230.656 -11576902.377 -17815920.787 10 0 59606 55800.00000 0 -11861584.526 -10969287.000 -19733138.678 10 0 59606 56700.00000 0 -9365856.215 -10507049.349 -21266893.036 10 0 59606 57600.00000 0 -6679344.329 -10226170.121 -22387379.212 10 0 59606 58500.00000 0 -3868246.064 -10151633.851 -23072824.615 10 0 59606 59400.00000 0 -1003134.324 -10296308.909 -23309911.079 10 0 59606 60300.00000 0 1843743.695 -10660354.654 -23094033.039 10 0 59606 61200.00000 0 4601234.593 -11231180.815 -22429386.677 10 0 59606 62100.00000 0 7201999.140 -11983960.956 -21328888.411 10 0 59606 63000.00000 0 9585072.516 -12882678.612 -19813924.266 10 0 59606 63900.00000 0 11698158.560 -13881662.261 -17913934.819 10 0 59606 64800.00000 0 13499563.329 -14927544.750 -15665843.564 10 0 59606 65700.00000 0 14959688.261 -15961564.800 -13113339.494 10 0 59606 66600.00000 0 16062021.431 -16922113.715 -10306027.651 10 0 59606 67500.00000 0 16803586.551 -17747419.914 -7298463.999 10 0 59606 68400.00000 0 17194831.965 -18378257.907 -4149093.356 10 0 59606 69300.00000 0 17258965.412 -18760567.151 -919111.246 10 0 59606 70200.00000 0 17030763.708 -18847869.889 2328727.909 10 0 59606 71100.00000 0 16554908.603 -18603385.485 5531332.729 10 0 59606 72000.00000 0 15883919.985 -18001751.571 8626502.646 10 0 59606 72900.00000 0 15075774.545 -17030278.911 11554137.251 10 0 59606 73800.00000 0 14191311.134 -15689686.573 14257403.462 10 0 59606 74700.00000 0 13291532.794 -13994285.991 16683837.591 10 0 59606 75600.00000 0 12434919.591 -11971605.566 18786361.052 10 0 59606 76500.00000 0 11674865.545 -9661470.936 20524190.282 10 0 59606 77400.00000 0 11057347.510 -7114578.760 21863623.630 10 0 59606 78300.00000 0 10618923.815 -4390622.792 22778690.596 10 0 59606 79200.00000 0 10385146.439 -1556049.492 23251651.462 10 0 59606 80100.00000 0 10369453.074 1318464.275 23273338.191 10 0 59606 81000.00000 0 10572585.312 4160707.628 22843330.477 10 0 59606 81900.00000 0 10982557.158 6899695.251 21969963.782 10 0 59606 82800.00000 0 11575175.227 9468376.541 20670169.205 10 0 59606 83700.00000 0 12315088.890 11806182.905 18969148.108 10 0 59606 84600.00000 0 13157326.590 13861308.392 16899887.324 10 0 59606 85500.00000 0 14049254.123 15592629.597 14502523.815 10 0 59607 0.00000 0 14932872.848 16971185.640 11823570.693 10 0 59607 900.00000 0 15747361.908 17981157.900 8915017.496 10 0 59607 1800.00000 0 16431756.329 18620307.347 5833325.391 10 0 59607 2700.00000 0 16927649.716 18899854.305 2638331.640 10 0 59607 3600.00000 0 17181806.073 18843804.286 -607911.977 10 0 59607 4500.00000 0 17148570.508 18487749.578 -3842345.450 10 0 59607 5400.00000 0 16791976.322 17877197.455 -7002127.627 10 0 59607 6300.00000 0 16087458.637 17065495.967 -10025859.872 10 0 59607 7200.00000 0 15023101.279 16111445.303 -12854781.973 10 0 59607 8100.00000 0 13600363.256 15076695.987 -15433916.644 10 0 59607 9000.00000 0 11834253.054 14023044.066 -17713140.063 10 0 59607 9900.00000 0 9752942.348 13009737.740 -19648157.340 10 0 59607 10800.00000 0 7396834.150 12090909.209 -21201363.961 10 0 59607 11700.00000 0 4817123.375 11313240.054 -22342576.556 10 0 59607 12600.00000 0 2073909.056 10713958.480 -23049618.977 10 0 59607 13500.00000 0 -766063.932 10319252.607 -23308752.575 10 0 59607 14400.00000 0 -3631940.406 10143166.377 -23114942.603 10 0 59607 15300.00000 0 -6451462.781 10187024.334 -22471955.735 10 0 59607 16200.00000 0 -9153739.464 10439409.229 -21392286.926 10 0 59607 17100.00000 0 -11671959.313 10876693.235 -19896916.987 10 0 59607 18000.00000 0 -13945939.790 11464100.236 -18014905.423 10 0 59607 18900.00000 0 -15924403.478 12157254.358 -15782826.240 10 0 59607 19800.00000 0 -17566888.774 12904149.387 -13244057.340 10 0 59607 20700.00000 0 -18845215.715 13647455.896 -10447937.158 10 0 59607 21600.00000 0 -19744446.502 14327068.563 -7448804.745 10 0 59607 22500.00000 0 -20263301.391 14882785.886 -4304941.910 10 0 59607 23400.00000 0 -20414013.417 15257008.746 -1077438.240 10 0 59607 24300.00000 0 -20221629.067 15397343.384 2170998.716 10 0 59607 25200.00000 0 -19722785.336 15258998.316 5377264.530 10 0 59607 26100.00000 0 -18964015.634 14806873.372 8479086.023 10 0 59607 27000.00000 0 -17999656.839 14017252.125 11416232.127 10 0 59607 27900.00000 0 -16889446.453 12879025.662 14131683.705 10 0 59607 28800.00000 0 -15695911.734 11394395.606 16572739.335 10 0 59607 29700.00000 0 -14481661.089 9579026.089 18692035.725 10 0 59607 30600.00000 0 -13306691.908 7461637.598 20448463.225 10 0 59607 31500.00000 0 -12225827.906 5083058.950 21807959.079 10 0 59607 32400.00000 0 -11286393.359 2494776.140 22744163.671 10 0 59607 33300.00000 0 -10526221.366 -242962.352 23238927.674 10 0 59607 34200.00000 0 -9972079.165 -3063405.841 23282660.832 10 0 59607 35100.00000 0 -9638575.919 -5895834.363 22874516.103 10 0 59607 36000.00000 0 -9527598.236 -8668260.116 22022405.851 10 0 59607 36900.00000 0 -9628296.671 -11310186.204 20742849.805 10 0 59607 37800.00000 0 -9917623.515 -13755309.171 19060657.537 10 0 59607 38700.00000 0 -10361399.116 -15944053.983 17008451.162 10 0 59607 39600.00000 0 -10915862.000 -17825836.800 14626036.994 10 0 59607 40500.00000 0 -11529637.656 -19360962.065 11959637.702 10 0 59607 41400.00000 0 -12146043.212 -20522075.431 9060999.197 10 0 59607 42300.00000 0 -12705630.927 -21295112.247 5986389.179 10 0 59607 43200.00000 0 -13148863.148 -21679702.423 2795506.364 10 0 59607 44100.00000 0 -13418805.553 -21689015.066 -449678.523 10 0 59607 45000.00000 0 -13463724.488 -21349049.774 -3686127.368 10 0 59607 45900.00000 0 -13239478.027 -20697404.797 -6850961.213 10 0 59607 46800.00000 0 -12711598.896 -19781574.300 -9882684.550 10 0 59607 47700.00000 0 -11856980.334 -18656846.837 -12722383.019 10 0 59607 48600.00000 0 -10665092.650 -17383893.988 -15314870.829 10 0 59607 49500.00000 0 -9138677.967 -16026151.082 -17609765.299 10 0 59607 50400.00000 0 -7293892.766 -14647100.631 -19562467.324 10 0 59607 51300.00000 0 -5159890.943 -13307572.991 -21135028.727 10 0 59607 52200.00000 0 -2777863.640 -12063177.870 -22296889.732 10 0 59607 53100.00000 0 -199574.945 -10961974.604 -23025472.394 10 0 59607 54000.00000 0 2514546.494 -10042478.842 -23306618.762 10 0 59607 54900.00000 0 5297681.336 -9332089.041 -23134865.504 10 0 59607 55800.00000 0 8079164.987 -8845998.410 -22513549.836 10 0 59607 56700.00000 0 10787199.470 -8586637.513 -21454744.811 10 0 59607 57600.00000 0 13351619.598 -8543670.421 -19979025.145 10 0 59607 58500.00000 0 15706598.867 -8694544.094 -18115067.987 10 0 59607 59400.00000 0 17793182.999 -9005567.384 -15899096.178 10 0 59607 60300.00000 0 19561546.093 -9433473.771 -13374174.467 10 0 59607 61200.00000 0 20972875.715 -9927401.532 -10589372.231 10 0 59607 62100.00000 0 22000808.751 -10431207.358 -7598808.778 10 0 59607 63000.00000 0 22632358.584 -10886015.262 -4460599.754 10 0 59607 63900.00000 0 22868295.378 -11232892.605 -1235725.389 10 0 59607 64800.00000 0 22722964.320 -11415539.539 2013157.195 10 0 59607 65700.00000 0 22223550.283 -11382877.634 5222934.123 10 0 59607 66600.00000 0 21408820.660 -11091427.614 8331263.093 10 0 59607 67500.00000 0 20327400.119 -10507375.141 11277785.660 10 0 59607 68400.00000 0 19035650.622 -9608236.767 14005299.594 10 0 59607 69300.00000 0 17595246.488 -8384055.157 16460868.328 10 0 59607 70200.00000 0 16070546.939 -6838072.579 18596846.031 10 0 59607 71100.00000 0 14525876.670 -4986853.532 20371798.691 10 0 59607 72000.00000 0 13022828.609 -2859850.630 21751303.734 10 0 59607 72900.00000 0 11617701.691 -498430.942 22708613.274 10 0 59607 73800.00000 0 10359180.494 2045597.530 23225168.790 10 0 59607 74700.00000 0 9286353.298 4711898.791 23290957.788 10 0 59607 75600.00000 0 8427150.733 7433882.723 22904706.058 10 0 59607 76500.00000 0 7797269.580 10141246.421 22073902.053 10 0 59607 77400.00000 0 7399626.063 12762678.404 20814652.963 10 0 59607 78300.00000 0 7224360.857 15228614.378 19151375.080 10 0 59607 79200.00000 0 7249395.078 17473930.913 17116324.049 10 0 59607 80100.00000 0 7441513.576 19440465.704 14748973.558 10 0 59607 81000.00000 0 7757929.709 21079260.094 12095253.901 10 0 59607 81900.00000 0 8148265.586 22352430.871 9206664.538 10 0 59607 82800.00000 0 8556864.190 23234593.418 6139277.425 10 0 59607 83700.00000 0 8925335.647 23713776.994 2952650.123 10 0 59607 84600.00000 0 9195229.809 23791793.983 -291330.410 10 0 59607 85500.00000 0 9310721.810 23484047.777 -3529650.674 10 0 59608 0.00000 0 9221196.489 22818787.621 -6699396.306 10 0 59608 900.00000 0 8883621.560 21835841.562 -9738978.066 10 0 59608 1800.00000 0 8264608.501 20584881.988 -12589329.543 10 0 59608 2700.00000 0 7342072.929 19123295.808 -15195058.610 10 0 59608 3600.00000 0 6106423.297 17513749.924 -17505525.647 10 0 59608 4500.00000 0 4561226.638 15821554.301 -19475828.998 10 0 59608 5400.00000 0 2723322.059 14111933.632 -21067678.232 10 0 59608 6300.00000 0 622375.927 12447322.175 -22250138.322 10 0 59608 7200.00000 0 -1700103.799 10884795.188 -23000230.427 10 0 59608 8100.00000 0 -4192254.094 9473744.452 -23303377.901 10 0 59608 9000.00000 0 -6793783.266 8253894.820 -23153689.115 10 0 59608 9900.00000 0 -9438257.809 7253744.474 -22554071.749 10 0 59608 10800.00000 0 -12055655.312 6489493.533 -21516176.470 10 0 59608 11700.00000 0 -14575077.837 5964505.218 -20060171.003 10 0 59608 12600.00000 0 -16927513.307 5669321.432 -18214348.867 10 0 59608 13500.00000 0 -19048530.371 5582231.277 -16014580.122 10 0 59608 14400.00000 0 -20880794.819 5670367.859 -13503614.504 10 0 59608 15300.00000 0 -22376302.806 5891286.426 -10730250.302 10 0 59608 16200.00000 0 -23498237.933 6194956.610 -7748384.957 10 0 59608 17100.00000 0 -24222374.839 6526083.971 -4615965.792 10 0 59608 18000.00000 0 -24537970.870 6826662.075 -1393861.490 10 0 59608 18900.00000 0 -24448108.935 7038646.554 1855323.469 10 0 59608 19800.00000 0 -23969477.705 7106637.341 5068468.005 10 0 59608 20700.00000 0 -23131599.036 6980454.996 8183163.001 10 0 59608 21600.00000 0 -21975535.722 6617501.526 11138924.977 10 0 59608 22500.00000 0 -20552134.568 5984805.281 13878370.990 10 0 59608 23400.00000 0 -18919879.133 5060663.001 16348331.675 10 0 59608 24300.00000 0 -17142442.765 3835809.106 18500880.918 10 0 59608 25200.00000 0 -15286044.769 2314062.306 20294262.435 10 0 59608 26100.00000 0 -13416720.564 512421.621 21693695.665 10 0 59608 27000.00000 0 -11597619.873 -1539393.120 22672045.986 10 0 59608 27900.00000 0 -9886445.446 -3799938.053 23210346.856 10 0 59608 28800.00000 0 -8333138.756 -6217538.724 23298164.359 10 0 59608 29700.00000 0 -6977908.478 -8732219.045 22933797.567 10 0 59608 30600.00000 0 -5849683.189 -11277986.620 22124311.108 10 0 59608 31500.00000 0 -4965052.014 -13785380.340 20885399.374 10 0 59608 32400.00000 0 -4327736.573 -16184175.358 19241084.802 10 0 59608 33300.00000 0 -3928615.519 -18406133.792 17223255.673 10 0 59608 34200.00000 0 -3746299.919 -20387687.342 14871051.862 10 0 59608 35100.00000 0 -3748234.763 -22072440.636 12230109.838 10 0 59608 36000.00000 0 -3892279.798 -23413391.251 9351680.912 10 0 59608 36900.00000 0 -4128702.750 -24374773.862 6291639.406 10 0 59608 37800.00000 0 -4402500.507 -24933451.449 3109399.637 10 0 59608 38700.00000 0 -4655949.880 -25079795.302 -133237.441 10 0 59608 39600.00000 0 -4831279.682 -24818016.800 -3373285.359 10 0 59608 40500.00000 0 -4873350.582 -24165937.021 -6547797.493 10 0 59608 41400.00000 0 -4732228.672 -23154203.799 -9595092.476 10 0 59608 42300.00000 0 -4365543.121 -21824989.162 -12455955.321 10 0 59608 43200.00000 0 -3740527.333 -20230221.964 -15074790.550 10 0 59608 44100.00000 0 -2835656.333 -18429430.044 -17400704.589 10 0 59608 45000.00000 0 -1641810.247 -16487282.639 -19388496.116 10 0 59608 45900.00000 0 -162913.656 -14470936.221 -20999535.099 10 0 59608 46800.00000 0 1583977.282 -12447294.995 -22202513.574 10 0 59608 47700.00000 0 3569144.825 -10480300.689 -22974053.684 10 0 59608 48600.00000 0 5751218.263 -8628364.816 -23299161.482 10 0 59608 49500.00000 0 8078680.153 -6942050.333 -23171517.926 10 0 59608 50400.00000 0 10491808.273 -5462099.153 -22593601.553 10 0 59608 51300.00000 0 12924973.158 -4217887.244 -21576640.572 10 0 59608 52200.00000 0 15309196.246 -3226371.086 -20140395.219 10 0 59608 53100.00000 0 17574862.476 -2491568.755 -18312774.457 10 0 59608 54000.00000 0 19654474.721 -2004596.345 -16129294.237 10 0 59608 54900.00000 0 21485335.415 -1744257.183 -13632387.528 10 0 59608 55800.00000 0 23012043.559 -1678158.128 -10870579.355 10 0 59608 56700.00000 0 24188702.855 -1764304.890 -7897542.704 10 0 59608 57600.00000 0 24980748.676 -1953108.205 -4771053.609 10 0 59608 58500.00000 0 25366317.444 -2189715.256 -1551865.949 10 0 59608 59400.00000 0 25337101.162 -2416566.957 1697471.889 10 0 59608 60300.00000 0 24898651.552 -2576072.136 4913835.143 10 0 59608 61200.00000 0 24070121.326 -2613284.789 8034751.350 10 0 59608 62100.00000 0 22883453.924 -2478470.428 10999615.308 10 0 59608 63000.00000 0 21382056.142 -2129452.401 13750866.409 10 0 59608 63900.00000 0 19619009.840 -1533638.473 16235105.222 10 0 59608 64800.00000 0 17654898.032 -669641.546 18404127.721 10 0 59608 65700.00000 0 15555336.622 471574.372 20215857.330 10 0 59608 66600.00000 0 13388315.170 1886071.791 21635157.103 10 0 59608 67500.00000 0 11221457.578 3556867.869 22634506.860 10 0 59608 68400.00000 0 9119316.672 5454416.910 23194532.812 10 0 59608 69300.00000 0 7140814.935 7537627.976 23304379.952 10 0 59608 70200.00000 0 5336937.269 9755376.173 22961920.512 10 0 59608 71100.00000 0 3748770.978 12048445.674 22173794.729 10 0 59608 72000.00000 0 2405973.713 14351824.522 20955283.183 10 0 59608 72900.00000 0 1325732.228 16597256.666 19330013.036 10 0 59608 73800.00000 0 512254.393 18715945.827 17329503.415 10 0 59608 74700.00000 0 -43185.181 20641299.178 14992558.299 10 0 59608 75600.00000 0 -361648.692 22311596.975 12364517.992 10 0 59608 76500.00000 0 -475413.624 23672477.015 9496383.129 10 0 59608 77400.00000 0 -426373.945 24679130.127 6443827.711 10 0 59608 78300.00000 0 -264031.919 25298114.795 3266120.015 10 0 59608 79200.00000 0 -43165.804 25508714.674 24972.122 10 0 59608 80100.00000 0 178727.517 25303781.760 -3216659.418 10 0 59608 81000.00000 0 344106.286 24690029.547 -6395798.275 10 0 59608 81900.00000 0 398060.238 23687763.547 -9450674.247 10 0 59608 82800.00000 0 290875.678 22330060.262 -12321926.030 10 0 59608 83700.00000 0 -19620.038 20661428.909 -14953757.118 10 0 59608 84600.00000 0 -566034.587 18736011.912 -17295022.052 10 0 59608 85500.00000 0 -1369793.712 16615399.610 -19300221.635 10 0 59609 0.00000 0 -2440000.318 14366150.833 -20930387.631 10 0 59609 900.00000 0 -3772819.381 12057121.799 -22153840.664 10 0 59609 1800.00000 0 -5351414.114 9756717.950 -22946804.623 10 0 59609 2700.00000 0 -7146439.115 7530179.186 -23293868.855 10 0 59609 3600.00000 0 -9117069.583 5437014.464 -23188287.121 10 0 59609 4500.00000 0 -11212525.030 3528691.086 -22632108.602 10 0 59609 5400.00000 0 -13374024.678 1846674.633 -21636138.384 10 0 59609 6300.00000 0 -15537093.677 420900.458 -20219728.081 10 0 59609 7200.00000 0 -17634124.368 -731260.238 -18410400.535 10 0 59609 8100.00000 0 -19597086.142 -1605497.642 -16243315.644 10 0 59609 9000.00000 0 -21360270.936 -2210504.169 -13760587.380 10 0 59609 9900.00000 0 -22862959.644 -2567362.487 -11010465.083 10 0 59609 10800.00000 0 -24051897.916 -2708407.679 -8046394.760 10 0 59609 11700.00000 0 -24883477.541 -2675612.581 -4925978.599 10 0 59609 12600.00000 0 -25325531.862 -2518565.438 -1709853.125 10 0 59609 13500.00000 0 -25358669.796 -2292126.363 1539491.903 10 0 59609 14400.00000 0 -24977092.465 -2053862.558 4758930.556 10 0 59609 15300.00000 0 -24188858.175 -1861371.619 7885929.515 10 0 59609 16200.00000 0 -23015584.754 -1769606.920 10859764.304 10 0 59609 17100.00000 0 -21491601.970 -1828318.811 13622699.034 10 0 59609 18000.00000 0 -19662589.748 -2079720.352 16121106.468 10 0 59609 18900.00000 0 -17583759.519 -2556476.614 18306506.724 10 0 59609 19800.00000 0 -15317654.832 -3280102.862 20136504.736 10 0 59609 20700.00000 0 -12931663.212 -4259839.498 21575608.616 10 0 59609 21600.00000 0 -10495342.915 -5492051.632 22595913.700 10 0 59609 22500.00000 0 -8077675.581 -6960179.166 23177639.606 10 0 59609 23400.00000 0 -5744358.698 -8635240.195 23309510.485 10 0 59609 24300.00000 0 -3555249.759 -10476867.548 22988971.601 10 0 59609 25200.00000 0 -1562067.488 -12434836.150 22222238.328 10 0 59609 26100.00000 0 193555.146 -14451018.379 21024176.664 10 0 59609 27000.00000 0 1681586.204 -16461686.787 19418017.453 10 0 59609 27900.00000 0 2884616.271 -18400069.019 17434909.408 10 0 59609 28800.00000 0 3798344.526 -20199048.946 15113319.114 10 0 59609 29700.00000 0 4431510.097 -21793901.766 12498289.030 10 0 59609 30600.00000 0 4805272.464 -23124949.052 9640567.238 10 0 59609 31500.00000 0 4952067.699 -24140022.680 6595625.408 10 0 59609 32400.00000 0 4913989.404 -24796634.341 3422583.642 10 0 59609 33300.00000 0 4740763.245 -25063759.309 183062.921 10 0 59609 34200.00000 0 4487401.148 -24923159.188 -3060012.416 10 0 59609 35100.00000 0 4211634.932 -24370187.539 -6243638.700 10 0 59609 36000.00000 0 3971238.505 -23414044.051 -9305959.318 10 0 59609 36900.00000 0 3821352.553 -22077466.011 -12187469.124 10 0 59609 37800.00000 0 3811925.566 -20395869.639 -14832173.087 10 0 59609 38700.00000 0 3985380.138 -18415976.842 -17188676.345 10 0 59609 39600.00000 0 4374603.878 -16193984.706 -19211184.210 10 0 59609 40500.00000 0 5001350.538 -13793354.072 -20860392.691 10 0 59609 41400.00000 0 5875119.608 -11282309.350 -22104252.324 10 0 59609 42300.00000 0 6992562.418 -8731153.832 -22918590.622 10 0 59609 43200.00000 0 8337440.631 -6209512.108 -23287581.362 10 0 59609 44100.00000 0 9881139.819 -3783614.119 -23204051.794 10 0 59609 45000.00000 0 11583717.484 -1513733.538 -22669622.001 10 0 59609 45900.00000 0 13395442.483 548113.474 -21694673.776 10 0 59609 46800.00000 0 15258762.220 2360114.058 -20298149.543 10 0 59609 47700.00000 0 17110615.840 3892168.665 -18507185.078 10 0 59609 48600.00000 0 18884997.121 5126903.326 -16356582.911 10 0 59609 49500.00000 0 20515660.080 6060142.973 -13888136.334 10 0 59609 50400.00000 0 21938854.018 6700827.139 -11149816.943 10 0 59609 51300.00000 0 23095973.349 7070372.843 -8194841.362 10 0 59609 52200.00000 0 23936010.917 7201512.709 -5080635.199 10 0 59609 53100.00000 0 24417711.518 7136658.427 -1867714.649 10 0 59609 54000.00000 0 24511334.956 6925859.791 1381492.305 10 0 59609 54900.00000 0 24199954.278 6624446.572 4603861.772 10 0 59609 55800.00000 0 23480234.438 6290453.835 7736802.743 10 0 59609 56700.00000 0 22362658.531 5981940.407 10719474.510 10 0 59609 57600.00000 0 20871192.015 5754314.570 13493968.737 10 0 59609 58500.00000 0 19042398.975 5657780.532 16006432.959 10 0 59609 59400.00000 0 16924047.432 5735013.971 18208113.741 10 0 59609 60300.00000 0 14573261.929 6019165.057 20056299.513 10 0 59609 61200.00000 0 12054300.487 6532273.394 21515145.125 10 0 59609 62100.00000 0 9436048.353 7284161.880 22556362.749 10 0 59609 63000.00000 0 6789332.471 8271856.372 23159766.369 10 0 59609 63900.00000 0 4184167.905 9479555.950 23313659.838 10 0 59609 64800.00000 0 1687049.867 10879155.640 23015061.546 10 0 59609 65700.00000 0 -641597.034 12431300.453 22269761.614 10 0 59609 66600.00000 0 -2749707.256 14086927.421 21092210.586 10 0 59609 67500.00000 0 -4595506.472 15789232.019 19505241.643 10 0 59609 68400.00000 0 -6149008.109 17475977.588 17539631.299 10 0 59609 69300.00000 0 -7393012.908 19082051.843 15233506.612 10 0 59609 70200.00000 0 -8323570.856 20542164.092 12631609.776 10 0 59609 71100.00000 0 -8949887.139 21793570.556 9784433.717 10 0 59609 72000.00000 0 -9293676.877 22778713.649 6747245.027 10 0 59609 72900.00000 0 -9387996.609 23447664.375 3579012.824 10 0 59609 73800.00000 0 -9275602.429 23760264.949 341264.144 10 0 59609 74700.00000 0 -9006904.659 23687881.070 -2903111.718 10 0 59609 75600.00000 0 -8637606.090 23214689.555 -6091086.536 10 0 59609 76500.00000 0 -8226124.209 22338446.450 -9160719.976 10 0 59609 77400.00000 0 -7830907.001 21070702.635 -12052365.595 10 0 59609 78300.00000 0 -7507756.480 19436457.120 -14709832.187 10 0 59609 79200.00000 0 -7307273.643 17473261.924 -17081477.609 10 0 59609 80100.00000 0 -7272533.456 15229815.477 -19121213.549 10 0 59609 81000.00000 0 -7437088.565 12764102.896 -20789401.724 10 0 59609 81900.00000 0 -7823386.577 10141160.353 -22053624.183 10 0 59609 82800.00000 0 -8441668.162 7430556.462 -22889312.908 10 0 59609 83700.00000 0 -9289393.002 4703695.227 -23280226.760 10 0 59609 84600.00000 0 -10351218.398 2031052.330 -23218766.768 10 0 59609 85500.00000 0 -11599532.063 -520540.624 -22706123.772 99